Hurlburt Field, FL

3:09 AM CST on February 20, 2017 (GMT -0600)
Hurlburt

Weather History for KHRT - September, 2012

Change the Weather History Date:

Wednesday, September 19, 2012

  Actual Average Record
Temperature  
Mean Temperature 72 °F -  
Max Temperature 80 °F 84 °F 93 °F (2005)
Min Temperature 64 °F 68 °F 62 °F (1996)
Cooling Degree Days 7    
Growing Degree Days 22 (Base 50)    
Moisture  
Dew Point 64 °F    
Average Humidity 74    
Maximum Humidity 98    
Minimum Humidity 61    
Precipitation  
Precipitation 0.00 in - - ()
Sea Level Pressure  
Sea Level Pressure 30.02 in    
Wind  
Wind Speed 7 mph (North)    
Max Wind Speed 14 mph    
Max Gust Speed -    
Visibility 9 miles    
Events Rain    
Averages and records for this station are not official NWS values.
T = Trace of Precipitation, MM = Missing Value Source: NWS Daily Summary

Daily Weather History Graph

Daily Weather History Graph

Search for Another Location

Airport or City:

Trip Planner

Search our weather history database for the weather conditions in past years. The results will help you decide how hot, cold, wet, or windy it might be!

Date:

Astronomy

Sep. 19, 2012 Rise Set
Actual Time 6:33 AM CDT 6:46 PM CDT
Civil Twilight 6:09 AM CDT 7:10 PM CDT
Nautical Twilight 5:41 AM CDT 7:38 PM CDT
Astronomical Twilight 5:13 AM CDT 8:06 PM CDT
Moon 10:21 AM CDT (9/19) 9:17 PM CDT (9/19)
Length of Visible Light 13h 00m
Length of Day
12h 12m
Waxing Crescent, 17% of the Moon is Illuminated
Sep 19
Waxing Crescent
Sep 22
First Quarter
Sep 29
Full
Oct 8
Last Quarter
Oct 15
New

Hourly Weather History & Observations

Time (CDT) Temp. Heat Index Dew Point Humidity Pressure Visibility Wind Dir Wind Speed Gust Speed Precip Events Conditions
12:55 AM 71.1 °F - 68.0 °F 90% 29.95 in 10.0 mi North 10.4 mph - N/A   Clear
1:55 AM 69.1 °F - 67.6 °F 95% 29.95 in 10.0 mi North 9.2 mph - N/A   Clear
2:55 AM 68.0 °F - 67.1 °F 97% 29.94 in 10.0 mi North 9.2 mph - N/A   Clear
3:55 AM 67.1 °F - 66.6 °F 98% 29.95 in 10.0 mi North 8.1 mph - N/A   Clear
4:55 AM 66.9 °F - 65.7 °F 96% 29.97 in 10.0 mi North 11.5 mph - N/A   Clear
5:55 AM 65.7 °F - 64.8 °F 97% 29.98 in 10.0 mi North 10.4 mph - N/A   Clear
6:55 AM 64.9 °F - 63.9 °F 96% 30.00 in 10.0 mi North 11.5 mph - N/A   Clear
7:55 AM 66.7 °F - 62.8 °F 87% 30.04 in 10.0 mi NNE 5.8 mph - N/A   Clear
8:47 AM 69.8 °F - 62.6 °F 78% 30.04 in 2.5 mi NNE 13.8 mph - N/A   Haze
8:48 AM 69.8 °F - 60.8 °F 73% 30.04 in 2.5 mi NNE 12.7 mph - N/A Rain Light Rain
8:51 AM 69.8 °F - 60.8 °F 73% 30.01 in 10.0 mi NNE 10.4 mph - N/A   Clear
8:55 AM 70.2 °F - 61.5 °F 74% 30.04 in 2.5 mi NNE 10.4 mph - 0.00 in Rain Light Rain
8:56 AM 69.8 °F - 60.8 °F 73% 30.04 in 5.0 mi NE 9.2 mph - N/A Rain Light Rain
8:57 AM 69.8 °F - 60.8 °F 73% 30.04 in 8.0 mi NE 8.1 mph - N/A   Clear
9:55 AM 73.4 °F - 62.2 °F 68% 30.05 in 10.0 mi NNE 4.6 mph - 0.00 in   Clear
10:27 AM 75.2 °F - 62.6 °F 65% 30.05 in 10.0 mi Variable 3.5 mph - N/A Rain Light Rain
10:38 AM 75.2 °F - 62.6 °F 65% 30.06 in 10.0 mi NNW 3.5 mph - N/A   Clear
10:44 AM 75.2 °F - 62.6 °F 65% 30.06 in 10.0 mi Calm Calm - N/A Rain Light Rain
10:55 AM 75.6 °F - 63.1 °F 65% 30.06 in 10.0 mi NW 3.5 mph - 0.00 in   Light Drizzle
11:01 AM 75.2 °F - 62.6 °F 65% 30.05 in 10.0 mi Calm Calm - N/A   Clear
11:02 AM 75.2 °F - 62.6 °F 65% 30.05 in 10.0 mi Calm Calm - N/A Rain Light Rain
11:33 AM 77.0 °F - 62.6 °F 61% 30.05 in 10.0 mi Calm Calm - N/A   Clear
11:35 AM 77.0 °F - 62.6 °F 61% 30.05 in 10.0 mi Calm Calm - N/A Rain Light Rain
11:38 AM 78.8 °F - 64.4 °F 61% 30.05 in 10.0 mi Calm Calm - N/A   Clear
11:49 AM 78.8 °F - 64.4 °F 61% 30.05 in 10.0 mi Variable 5.8 mph - N/A   Light Drizzle
11:55 AM 78.4 °F - 65.7 °F 65% 30.05 in 10.0 mi South 8.1 mph - 0.00 in   Light Drizzle
12:00 PM 77.0 °F - 64.4 °F 65% 30.05 in 10.0 mi SSW 6.9 mph - N/A   Clear
12:55 PM 77.2 °F - 65.5 °F 67% 30.06 in 10.0 mi SW 9.2 mph - 0.00 in   Clear
1:55 PM 77.5 °F - 66.0 °F 68% 30.03 in 10.0 mi SW 9.2 mph - N/A   Clear
2:55 PM 78.3 °F - 66.7 °F 68% 30.01 in 10.0 mi WSW 8.1 mph - N/A   Clear
3:55 PM 78.8 °F - 67.3 °F 68% 30.00 in 10.0 mi SW 8.1 mph - N/A   Clear
4:55 PM 79.9 °F - 67.6 °F 66% 29.99 in 10.0 mi WSW 4.6 mph - 0.00 in Rain Light Rain
5:01 PM 80.6 °F 83.2 °F 68.0 °F 65% 29.99 in 10.0 mi Variable 4.6 mph - N/A   Clear
5:35 PM 80.6 °F 83.2 °F 68.0 °F 65% 29.99 in 10.0 mi SSE 5.8 mph - N/A Rain Light Rain
5:43 PM 78.8 °F - 68.0 °F 69% 29.99 in 10.0 mi SSE 5.8 mph - N/A   Clear
5:53 PM 78.8 °F - 66.2 °F 65% 29.99 in 10.0 mi Calm Calm - N/A   Light Drizzle
5:55 PM 79.0 °F - 66.6 °F 66% 29.99 in 10.0 mi Calm Calm - 0.00 in   Light Drizzle
5:59 PM 78.8 °F - 66.2 °F 65% 29.99 in 10.0 mi NNE 3.5 mph - N/A   Clear
6:55 PM 75.0 °F - 65.1 °F 71% 30.01 in 10.0 mi NNE 4.6 mph - 0.00 in   Clear
7:55 PM 71.4 °F - 65.7 °F 82% 30.02 in 10.0 mi NE 3.5 mph - N/A   Clear
8:55 PM 69.3 °F - 65.3 °F 87% 30.05 in 10.0 mi North 5.8 mph - N/A   Clear
9:55 PM 67.3 °F - 63.0 °F 86% 30.06 in 10.0 mi North 6.9 mph - N/A   Clear
10:55 PM 66.6 °F - 61.7 °F 84% 30.07 in 10.0 mi North 6.9 mph - N/A   Clear
11:55 PM 65.3 °F - 60.8 °F 85% 30.06 in 10.0 mi North 8.1 mph - N/A   Clear